AirNav   Everest Fuels
 
 1066 users online  

M50 Boardman Airport
Boardman, Oregon, USA

GOING TO BOARDMAN?


FAA INFORMATION EFFECTIVE 09 SEPTEMBER 2021

Location

FAA Identifier: M50
Lat/Long: 45-48-53.3700N 119-49-13.8020W
45-48.889500N 119-49.230033W
45.8148250,-119.8205006
(estimated)
Elevation: 395.5 ft. / 120.5 m (surveyed)
Variation: 19E (1985)
From city: 4 miles SW of BOARDMAN, OR
Time zone: UTC -7 (UTC -8 during Standard Time)
Zip code: 97818

Airport Operations

Airport use: Open to the public
Activation date: 12/1943
Control tower: no
ARTCC: SEATTLE CENTER
FSS: MC MINNVILLE FLIGHT SERVICE STATION
NOTAMs facility: MMV (NOTAM-D service available)
Attendance: UNATNDD
Wind indicator: lighted
Segmented circle: yes
MARKED WITH WHITE TIRES.
Lights: ACTVT MIRL RY 04/22 - 122.900.
Beacon: white-green (lighted land airport)
Operates sunset to sunrise.

Airport Communications

CTAF: 122.9

Nearby radio navigation aids

VOR radial/distance  VOR name  Freq  Var
PDTr267/37.6PENDLETON VORTAC114.7014E

Airport Services

Parking: tiedowns
Airframe service: NONE
Powerplant service: NONE

Runway Information

Runway 4/22

Dimensions: 4200 x 100 ft. / 1280 x 30 m
Surface: asphalt, in good condition
Weight bearing capacity: 
Single wheel: 30.0
Runway edge lights: medium intensity
Runway edge markings: RWY CNTRLN IN POOR COND DUE TO FADING.
RUNWAY 4  RUNWAY 22
Latitude: 45-48.728717N45-49.050250N
Longitude: 119-49.667383W119-48.792633W
Elevation: 395.5 ft.366.3 ft.
Traffic pattern: leftright
Runway heading: 043 magnetic, 062 true223 magnetic, 242 true
Markings: basic, in good conditionbasic, in good condition
Touchdown point: yes, no lightsyes, no lights

Airport Ownership and Management from official FAA records

Ownership: Publicly-owned
Owner: PORT OF MORROW
P.O. BOX 200
BOARDMAN, OR 97818
Phone 541-481-7678
Manager: LISA MITTELSDORF
PORT OF MORROW BOX 200
BOARDMAN, OR 97818
Phone 541-481-7678

Airport Operational Statistics

Aircraft operations: avg 29/week *
80% transient general aviation
17% local general aviation
3% air taxi
* for 12-month period ending 28 January 2019

Additional Remarks

TELEPHONE AVBL.
TRIPLE PLINE RUNS EAST-WEST 3000 FT N OF ARPT.
TAXIWAY EDGE MARKED WITH BLUE REFLECTORS.
FOR CD CTC SEATTLE ARTCC AT 253-351-3694.

Instrument Procedures

There are no published instrument procedures at M50.

Some nearby airports with instrument procedures:

9S9 - Lexington Airport (22 nm S)
KHRI - Hermiston Municipal Airport (23 nm E)
KRLD - Richland Airport (36 nm NE)
KPSC - Tri-Cities Airport (40 nm NE)
KPDT - Eastern Oregon Regional Airport at Pendleton (42 nm E)
 
Loc | Ops | Rwys | IFR | FBO | Links
Com | Nav | Svcs | Stats | Notes
Area around M50 (Boardman Airport)
 
Road maps at: MapQuest Bing Google
 
Aerial photo
WARNING: Photo may not be current or correct
Aerial photo of M50 (Boardman Airport)
Do you have a better or more recent aerial photo of Boardman Airport that you would like to share? If so, please send us your photo.

 
Sectional chart

 
Airport distance calculator
Flying to Boardman Airport? Find the distance to fly.

From to M50

Sunrise and sunset
Times for 26-Sep-2021
 Local
(UTC-7)
 Zulu
(UTC)
Morning civil twilight06:2313:23
Sunrise06:5213:52
Sunset18:4901:49
Evening civil twilight19:1902:19

Current date and time
Zulu (UTC)  27-Sep-2021 01:52:54
Local (UTC-7)  26-Sep-2021 18:52:54
 
METAR
KHRI 
23nm E 
270053Z AUTO 13005KT 10SM CLR 28/04 A2970 RMK AO2 SLP051 T02780039
K1S5 
31nm N 
270135Z AUTO 28007KT 10SM CLR 26/06 A2968 RMK AO2 T02550058
KRLD 
36nm NE 
270135Z AUTO 00000KT 10SM CLR 27/04 A2968 RMK AO2 T02710036
KPSC 
40nm NE 
270053Z 23007KT 10SM CLR 28/03 A2968 RMK AO2 SLP048 T02830028
KPDT 
42nm E 
270053Z 32003KT 10SM CLR 26/04 A2975 RMK AO2 SLP061 T02610039
TAF
KPSC 
40nm NE 
261720Z 2618/2718 22011KT P6SM BKN250 FM270300 23010KT P6SM BKN080 BKN250
KPDT 
42nm E 
262003Z 2620/2718 30010KT P6SM SCT200 FM262200 30013G22KT P6SM SCT200 FM270100 26009KT P6SM BKN250 FM270600 19006KT P6SM SCT100 OVC250 FM271000 15004KT P6SM OVC100
NOTAMs
Click for the latest NOTAMs
NOTAMs are issued by the DoD/FAA and will open in a separate window not controlled by AirNav.

 

 
 

Would you like to see your business listed on this page?

 If your business provides an interesting product or service to pilots, flight crews, aircraft, or users of the Boardman Airport, you should consider listing it here.  To start the listing process, click on the button below
 
Add a business
 

Other Pages about Boardman Airport

Update a link
 
Copyright © AirNav, LLC. All rights reserved. Privacy Policy  Contact